| time (UTC) | temp C | wind direction | speed KPH | gust KPH | rain 1hr cm | rain 24hr cm | rain mn cm | humidity % | barometer mb |
| 20260504021532 | 10 | 115 | 0.0 | 0.0 | 0.00 | 0.00 | 0.00 | 56 | 1014.0 |
| 20260504021024 | 10 | 115 | 0.0 | 0.0 | 0.00 | 0.00 | 0.00 | 56 | 1014.0 |
| 20260504020540 | 10 | 115 | 0.0 | 0.0 | 0.00 | 0.00 | 0.00 | 53 | 1013.9 |
| 20260504020041 | 10 | 115 | 0.0 | 0.0 | 0.00 | 0.00 | 0.00 | 54 | 1013.8 |
| 20260504015540 | 10 | 115 | 0.0 | 0.0 | 0.00 | 0.00 | 0.00 | 53 | 1013.8 |
| 20260504015037 | 10 | 115 | 0.0 | 0.0 | 0.00 | 0.00 | 0.00 | 51 | 1013.7 |
| 20260504014524 | 11 | 115 | 0.0 | 0.0 | 0.00 | 0.00 | 0.00 | 50 | 1013.7 |
| 20260504014104 | 11 | 115 | 0.0 | 0.0 | 0.00 | 0.00 | 0.00 | 49 | 1013.7 |
| 20260504013601 | 11 | 115 | 0.0 | 3.2 | 0.00 | 0.00 | 0.00 | 48 | 1013.7 |
| 20260504013042 | 11 | 115 | 1.6 | 4.8 | 0.00 | 0.00 | 0.00 | 47 | 1013.7 |
| 20260504012602 | 11 | 113 | 1.6 | 4.8 | 0.00 | 0.00 | 0.00 | 48 | 1013.6 |
| 20260504012043 | 11 | 247 | 0.0 | 6.4 | 0.00 | 0.00 | 0.00 | 49 | 1013.6 |
| 20260504011602 | 11 | 247 | 0.0 | 6.4 | 0.00 | 0.00 | 0.00 | 47 | 1013.5 |
| 20260504011040 | 11 | 209 | 3.2 | 4.8 | 0.00 | 0.00 | 0.00 | 44 | 1013.4 |
| 20260504010556 | 12 | 209 | 1.6 | 3.2 | 0.00 | 0.00 | 0.00 | 44 | 1013.4 |
| 20260504010033 | 12 | 209 | 1.6 | 4.8 | 0.00 | 0.00 | 0.00 | 44 | 1013.4 |
| 20260504005525 | 12 | 209 | 3.2 | 4.8 | 0.00 | 0.00 | 0.00 | 45 | 1013.5 |
| 20260504005044 | 12 | 254 | 1.6 | 3.2 | 0.00 | 0.00 | 0.00 | 43 | 1013.4 |
| 20260504004536 | 12 | 254 | 0.0 | 6.4 | 0.00 | 0.00 | 0.00 | 41 | 1013.4 |
| 20260504004040 | 12 | 254 | 3.2 | 11.3 | 0.00 | 0.00 | 0.00 | 41 | 1013.3 |
| 20260504003533 | 12 | 259 | 4.8 | 12.9 | 0.00 | 0.00 | 0.00 | 40 | 1013.3 |
| 20260504003031 | 13 | 249 | 6.4 | 12.9 | 0.00 | 0.00 | 0.00 | 39 | 1013.3 |
| 20260504002524 | 13 | 267 | 3.2 | 8.0 | 0.00 | 0.00 | 0.00 | 39 | 1013.2 |
| 20260504002105 | 13 | 273 | 4.8 | 12.9 | 0.00 | 0.00 | 0.00 | 39 | 1013.2 |
| 20260504001603 | 13 | 258 | 6.4 | 12.9 | 0.00 | 0.00 | 0.00 | 39 | 1013.3 |
| 20260504001041 | 13 | 255 | 4.8 | 14.5 | 0.00 | 0.00 | 0.00 | 39 | 1013.2 |
| 20260504000540 | 13 | 244 | 6.4 | 14.5 | 0.00 | 0.00 | 0.00 | 38 | 1013.2 |
| 20260504000057 | 14 | 258 | 4.8 | 16.1 | 0.00 | 0.00 | 0.00 | 38 | 1013.2 |
| 20260503235553 | 14 | 247 | 6.4 | 16.1 | 0.00 | 0.00 | 0.00 | 37 | 1013.1 |
| 20260503235027 | 14 | 242 | 8.0 | 17.7 | 0.00 | 0.00 | 0.00 | 36 | 1013.1 |
| 20260503234603 | 14 | 262 | 9.7 | 17.7 | 0.00 | 0.00 | 0.00 | 36 | 1013.0 |
| 20260503234037 | 15 | 269 | 11.3 | 16.1 | 0.00 | 0.00 | 0.00 | 36 | 1012.9 |
| 20260503233529 | 15 | 253 | 9.7 | 16.1 | 0.00 | 0.00 | 0.00 | 35 | 1013.0 |
| 20260503233051 | 15 | 272 | 6.4 | 16.1 | 0.00 | 0.00 | 0.00 | 36 | 1012.9 |
| 20260503232551 | 15 | 252 | 8.0 | 19.3 | 0.00 | 0.00 | 0.00 | 35 | 1012.9 |
| 20260503232023 | 15 | 311 | 8.0 | 19.3 | 0.00 | 0.00 | 0.00 | 35 | 1012.8 |
| 20260503231603 | 15 | 270 | 6.4 | 19.3 | 0.00 | 0.00 | 0.00 | 34 | 1012.8 |
| 20260503231041 | 15 | 286 | 12.9 | 22.5 | 0.00 | 0.00 | 0.00 | 33 | 1012.7 |
| 20260503230533 | 15 | 292 | 11.3 | 22.5 | 0.00 | 0.00 | 0.00 | 33 | 1012.7 |
| 20260503230023 | 16 | 298 | 6.4 | 16.1 | 0.00 | 0.00 | 0.00 | 33 | 1012.6 |
| 20260503225542 | 16 | 280 | 6.4 | 16.1 | 0.00 | 0.00 | 0.00 | 33 | 1012.7 |
| 20260503225041 | 16 | 300 | 8.0 | 20.9 | 0.00 | 0.00 | 0.00 | 33 | 1012.7 |
| 20260503224539 | 16 | 271 | 11.3 | 30.6 | 0.00 | 0.00 | 0.00 | 33 | 1012.7 |
| 20260503224034 | 16 | 277 | 11.3 | 30.6 | 0.00 | 0.00 | 0.00 | 32 | 1012.6 |
| 20260503223553 | 16 | 234 | 12.9 | 24.1 | 0.00 | 0.00 | 0.00 | 32 | 1012.7 |
| 20260503223025 | 16 | 221 | 14.5 | 22.5 | 0.00 | 0.00 | 0.00 | 31 | 1012.7 |
| 20260503222538 | 16 | 251 | 8.0 | 19.3 | 0.00 | 0.00 | 0.00 | 33 | 1012.7 |
| 20260503222032 | 16 | 278 | 9.7 | 19.3 | 0.00 | 0.00 | 0.00 | 34 | 1012.7 |
| 20260503221525 | 16 | 265 | 6.4 | 25.7 | 0.00 | 0.00 | 0.00 | 33 | 1012.8 |
| 20260503221044 | 16 | 244 | 12.9 | 25.7 | 0.00 | 0.00 | 0.00 | 33 | 1012.8 |
| 20260503220543 | 17 | 254 | 9.7 | 20.9 | 0.00 | 0.00 | 0.00 | 32 | 1012.8 |
| 20260503220042 | 17 | 270 | 6.4 | 22.5 | 0.00 | 0.00 | 0.00 | 32 | 1012.7 |
| 20260503215541 | 17 | 272 | 12.9 | 22.5 | 0.00 | 0.00 | 0.00 | 31 | 1012.7 |
| 20260503215101 | 17 | 279 | 11.3 | 22.5 | 0.00 | 0.00 | 0.00 | 32 | 1012.7 |
| 20260503214540 | 17 | 318 | 12.9 | 22.5 | 0.00 | 0.00 | 0.00 | 31 | 1012.7 |
| 20260503214041 | 17 | 315 | 9.7 | 27.4 | 0.00 | 0.00 | 0.00 | 31 | 1012.8 |
| 20260503213540 | 17 | 296 | 12.9 | 27.4 | 0.00 | 0.00 | 0.00 | 30 | 1012.8 |
| 20260503213040 | 17 | 283 | 12.9 | 30.6 | 0.00 | 0.00 | 0.00 | 31 | 1012.8 |
| 20260503212535 | 17 | 277 | 12.9 | 30.6 | 0.00 | 0.00 | 0.00 | 30 | 1012.8 |
| 20260503212031 | 17 | 250 | 12.9 | 32.2 | 0.00 | 0.00 | 0.00 | 32 | 1012.8 |
| 20260503211526 | 17 | 250 | 14.5 | 32.2 | 0.00 | 0.00 | 0.00 | 32 | 1012.7 |
| 20260503211044 | 17 | 224 | 17.7 | 29.0 | 0.00 | 0.00 | 0.00 | 32 | 1012.7 |
| 20260503210542 | 16 | 279 | 16.1 | 32.2 | 0.00 | 0.00 | 0.00 | 33 | 1012.7 |
| 20260503210104 | 16 | 207 | 19.3 | 32.2 | 0.00 | 0.00 | 0.00 | 33 | 1012.7 |
| 20260503205538 | 16 | 250 | 11.3 | 25.7 | 0.00 | 0.00 | 0.00 | 34 | 1012.8 |
| 20260503205058 | 16 | 278 | 16.1 | 25.7 | 0.00 | 0.00 | 0.00 | 33 | 1012.8 |
| 20260503204558 | 16 | 263 | 8.0 | 22.5 | 0.00 | 0.00 | 0.00 | 34 | 1012.8 |
| 20260503204041 | 17 | 302 | 12.9 | 22.5 | 0.00 | 0.00 | 0.00 | 32 | 1012.8 |
| 20260503203541 | 17 | 250 | 11.3 | 24.1 | 0.00 | 0.00 | 0.00 | 31 | 1012.9 |
| 20260503203041 | 17 | 305 | 12.9 | 24.1 | 0.00 | 0.00 | 0.00 | 31 | 1012.9 |
| 20260503202540 | 17 | 259 | 8.0 | 22.5 | 0.00 | 0.00 | 0.00 | 30 | 1012.9 |
| 20260503202043 | 17 | 290 | 12.9 | 27.4 | 0.00 | 0.00 | 0.00 | 31 | 1013.1 |
| 20260503201603 | 17 | 279 | 19.3 | 27.4 | 0.00 | 0.00 | 0.00 | 33 | 1013.1 |
| 20260503201041 | 17 | 309 | 6.4 | 20.9 | 0.00 | 0.00 | 0.00 | 34 | 1013.0 |
| 20260503200539 | 17 | 293 | 11.3 | 20.9 | 0.00 | 0.00 | 0.00 | 35 | 1013.1 |
| 20260503200034 | 17 | 306 | 6.4 | 20.9 | 0.00 | 0.00 | 0.00 | 32 | 1013.1 |
| 20260503195528 | 17 | 265 | 12.9 | 20.9 | 0.00 | 0.00 | 0.00 | 33 | 1013.1 |
| 20260503195044 | 17 | 286 | 8.0 | 19.3 | 0.00 | 0.00 | 0.00 | 32 | 1013.3 |
| 20260503194604 | 17 | 292 | 8.0 | 20.9 | 0.00 | 0.00 | 0.00 | 32 | 1013.4 |
| 20260503194105 | 17 | 329 | 12.9 | 22.5 | 0.00 | 0.00 | 0.00 | 31 | 1013.4 |
| 20260503193541 | 18 | 259 | 11.3 | 22.5 | 0.00 | 0.00 | 0.00 | 32 | 1013.5 |
| 20260503193042 | 18 | 267 | 11.3 | 29.0 | 0.00 | 0.00 | 0.00 | 30 | 1013.6 |
| 20260503192536 | 18 | 262 | 11.3 | 29.0 | 0.00 | 0.00 | 0.00 | 31 | 1013.7 |
| 20260503192033 | 18 | 281 | 14.5 | 30.6 | 0.00 | 0.00 | 0.00 | 32 | 1013.7 |
| 20260503191527 | 18 | 306 | 14.5 | 30.6 | 0.00 | 0.00 | 0.00 | 31 | 1013.8 |
| 20260503191106 | 18 | 296 | 17.7 | 25.7 | 0.00 | 0.00 | 0.00 | 30 | 1013.7 |
| 20260503190602 | 18 | 242 | 11.3 | 27.4 | 0.00 | 0.00 | 0.00 | 31 | 1013.8 |
| 20260503190038 | 18 | 32 | 9.7 | 27.4 | 0.00 | 0.00 | 0.00 | 32 | 1013.8 |
| 20260503185539 | 17 | 324 | 17.7 | 29.0 | 0.00 | 0.00 | 0.00 | 33 | 1013.9 |
| 20260503185041 | 18 | 335 | 14.5 | 29.0 | 0.00 | 0.00 | 0.00 | 30 | 1014.1 |
| 20260503184536 | 18 | 292 | 11.3 | 29.0 | 0.00 | 0.00 | 0.00 | 33 | 1014.0 |
| 20260503184033 | 17 | 315 | 6.4 | 32.2 | 0.00 | 0.00 | 0.00 | 31 | 1014.1 |
| 20260503183529 | 17 | 269 | 14.5 | 32.2 | 0.00 | 0.00 | 0.00 | 34 | 1014.2 |
| 20260503183025 | 17 | 275 | 12.9 | 29.0 | 0.00 | 0.00 | 0.00 | 32 | 1014.1 |
| 20260503182538 | 17 | 292 | 14.5 | 29.0 | 0.00 | 0.00 | 0.00 | 31 | 1014.2 |
| 20260503182034 | 17 | 265 | 9.7 | 24.1 | 0.00 | 0.00 | 0.00 | 33 | 1014.2 |
| 20260503181529 | 17 | 279 | 14.5 | 30.6 | 0.00 | 0.00 | 0.00 | 34 | 1014.2 |
| 20260503181025 | 17 | 293 | 11.3 | 30.6 | 0.00 | 0.00 | 0.00 | 30 | 1014.3 |
| 20260503180543 | 17 | 322 | 12.9 | 27.4 | 0.00 | 0.00 | 0.00 | 28 | 1014.4 |
| 20260503180037 | 17 | 328 | 16.1 | 25.7 | 0.00 | 0.00 | 0.00 | 30 | 1014.3 |
| 20260503175558 | 17 | 318 | 9.7 | 24.1 | 0.00 | 0.00 | 0.00 | 29 | 1014.2 |
| 20260503175100 | 17 | 328 | 8.0 | 20.9 | 0.00 | 0.00 | 0.00 | 35 | 1014.3 |
| 20260503174540 | 16 | 329 | 9.7 | 25.7 | 0.00 | 0.00 | 0.00 | 33 | 1014.4 |
| 20260503174103 | 16 | 286 | 9.7 | 25.7 | 0.00 | 0.00 | 0.00 | 32 | 1014.4 |
| 20260503173541 | 16 | 248 | 11.3 | 41.8 | 0.00 | 0.00 | 0.00 | 35 | 1014.5 |
| 20260503173042 | 16 | 269 | 20.9 | 41.8 | 0.00 | 0.00 | 0.00 | 33 | 1014.4 |
| 20260503172537 | 16 | 264 | 19.3 | 33.8 | 0.00 | 0.00 | 0.00 | 32 | 1014.4 |
| 20260503172059 | 16 | 235 | 19.3 | 33.8 | 0.00 | 0.00 | 0.00 | 34 | 1014.5 |
| 20260503171538 | 16 | 234 | 11.3 | 29.0 | 0.00 | 0.00 | 0.00 | 33 | 1014.6 |
| 20260503171040 | 16 | 290 | 9.7 | 29.0 | 0.00 | 0.00 | 0.00 | 34 | 1014.7 |
| 20260503170540 | 16 | 252 | 16.1 | 35.4 | 0.00 | 0.00 | 0.00 | 31 | 1014.7 |
| 20260503150538 | 11 | 288 | 8.0 | 19.3 | 0.00 | 0.00 | 0.00 | 44 | 1015.8 |
| 20260503131026 | 8 | 316 | 11.3 | 25.7 | 0.00 | 0.00 | 0.00 | 53 | 1015.9 |
| 20260503130546 | 8 | 329 | 16.1 | 25.7 | 0.00 | 0.00 | 0.00 | 52 | 1016.0 |
| 20260503110534 | 3 | 294 | 3.2 | 11.3 | 0.00 | 0.00 | 0.00 | 70 | 1015.6 |
| 20260503081537 | 3 | 275 | 1.6 | 4.8 | 0.00 | 0.00 | 0.00 | 70 | 1013.9 |
| 20260503081034 | 3 | 292 | 0.0 | 4.8 | 0.00 | 0.00 | 0.00 | 69 | 1013.9 |
| 20260503080553 | 3 | 292 | 1.6 | 4.8 | 0.00 | 0.00 | 0.00 | 70 | 1013.8 |
| 20260503072552 | 3 | 234 | 1.6 | 4.8 | 0.00 | 0.00 | 0.00 | 68 | 1013.6 |
| 20260503072028 | 4 | 273 | 1.6 | 4.8 | 0.00 | 0.00 | 0.00 | 68 | 1013.5 |
| 20260503071545 | 4 | 273 | 0.0 | 9.7 | 0.00 | 0.00 | 0.00 | 68 | 1013.5 |
| 20260503071042 | 4 | 261 | 3.2 | 9.7 | 0.00 | 0.00 | 0.00 | 67 | 1013.5 |
| 20260503070541 | 4 | 286 | 1.6 | 3.2 | 0.00 | 0.00 | 0.00 | 68 | 1013.4 |
| 20260503055033 | 5 | 290 | 4.8 | 9.7 | 0.00 | 0.00 | 0.00 | 65 | 1013.4 |
| 20260503054525 | 5 | 297 | 4.8 | 9.7 | 0.00 | 0.00 | 0.00 | 65 | 1013.3 |
| 20260503054045 | 5 | 298 | 1.6 | 8.0 | 0.00 | 0.00 | 0.00 | 65 | 1013.4 |
| 20260503053536 | 5 | 288 | 4.8 | 14.5 | 0.00 | 0.00 | 0.00 | 65 | 1013.4 |
| 20260503053033 | 5 | 307 | 4.8 | 14.5 | 0.00 | 0.00 | 0.00 | 65 | 1013.4 |
| 20260503052526 | 5 | 315 | 4.8 | 16.1 | 0.00 | 0.00 | 0.00 | 65 | 1013.4 |
| 20260503052044 | 6 | 285 | 4.8 | 16.1 | 0.00 | 0.00 | 0.00 | 65 | 1013.5 |
| 20260503051536 | 6 | 306 | 6.4 | 14.5 | 0.00 | 0.00 | 0.00 | 66 | 1013.6 |
| 20260503051041 | 6 | 292 | 6.4 | 12.9 | 0.00 | 0.00 | 0.00 | 67 | 1013.5 |
| 20260503050539 | 6 | 336 | 6.4 | 12.9 | 0.00 | 0.00 | 0.00 | 67 | 1013.4 |
| 20260503050042 | 6 | 321 | 4.8 | 8.0 | 0.00 | 0.00 | 0.00 | 66 | 1013.4 |
| 20260503045537 | 6 | 342 | 4.8 | 8.0 | 0.00 | 0.00 | 0.00 | 66 | 1013.4 |
| 20260503045041 | 6 | 319 | 4.8 | 9.7 | 0.00 | 0.00 | 0.00 | 65 | 1013.5 |
| 20260503044540 | 6 | 351 | 3.2 | 9.7 | 0.00 | 0.00 | 0.00 | 65 | 1013.5 |
| 20260503044034 | 6 | 311 | 4.8 | 9.7 | 0.00 | 0.00 | 0.00 | 65 | 1013.5 |
| 20260503043553 | 6 | 342 | 4.8 | 12.9 | 0.00 | 0.00 | 0.00 | 65 | 1013.5 |
| 20260503043028 | 6 | 355 | 3.2 | 14.5 | 0.00 | 0.00 | 0.00 | 65 | 1013.6 |
| 20260503042543 | 6 | 309 | 9.7 | 14.5 | 0.00 | 0.00 | 0.00 | 65 | 1013.8 |
| 20260503042042 | 6 | 313 | 9.7 | 14.5 | 0.00 | 0.00 | 0.00 | 65 | 1013.7 |
| 20260503041542 | 6 | 308 | 4.8 | 8.0 | 0.00 | 0.00 | 0.00 | 65 | 1013.8 |
| 20260503041043 | 6 | 301 | 3.2 | 8.0 | 0.00 | 0.00 | 0.00 | 66 | 1013.9 |
| 20260503040533 | 6 | 278 | 4.8 | 8.0 | 0.00 | 0.00 | 0.00 | 65 | 1013.9 |
| 20260503040032 | 6 | 300 | 1.6 | 4.8 | 0.00 | 0.00 | 0.00 | 64 | 1013.8 |
| 20260503035525 | 6 | 300 | 1.6 | 6.4 | 0.00 | 0.00 | 0.00 | 64 | 1013.9 |
| 20260503035059 | 7 | 299 | 3.2 | 6.4 | 0.00 | 0.00 | 0.00 | 64 | 1014.0 |
| 20260503034542 | 7 | 302 | 3.2 | 11.3 | 0.00 | 0.00 | 0.00 | 63 | 1014.0 |
| 20260503034105 | 7 | 284 | 4.8 | 11.3 | 0.00 | 0.00 | 0.00 | 63 | 1014.0 |
| 20260503033543 | 7 | 321 | 3.2 | 9.7 | 0.00 | 0.00 | 0.00 | 63 | 1014.0 |
| 20260503033105 | 7 | 288 | 4.8 | 9.7 | 0.00 | 0.00 | 0.00 | 62 | 1014.0 |
| 20260503032542 | 7 | 316 | 4.8 | 6.4 | 0.00 | 0.00 | 0.00 | 61 | 1014.0 |
| 20260503032041 | 7 | 309 | 4.8 | 12.9 | 0.00 | 0.00 | 0.00 | 61 | 1013.9 |
| 20260503031538 | 8 | 318 | 6.4 | 14.5 | 0.00 | 0.00 | 0.00 | 60 | 1013.9 |
| 20260503031033 | 8 | 309 | 4.8 | 16.1 | 0.00 | 0.00 | 0.00 | 59 | 1013.8 |
| 20260503030529 | 8 | 338 | 4.8 | 17.7 | 0.00 | 0.00 | 0.00 | 59 | 1013.8 |
| 20260503030024 | 8 | 338 | 6.4 | 17.7 | 0.00 | 0.00 | 0.00 | 60 | 1013.9 |
| 20260503025602 | 8 | 327 | 8.0 | 22.5 | 0.00 | 0.00 | 0.00 | 59 | 1013.9 |
| 20260503025041 | 8 | 309 | 6.4 | 24.1 | 0.00 | 0.00 | 0.00 | 58 | 1013.7 |
| 20260503024533 | 8 | 26 | 9.7 | 24.1 | 0.00 | 0.00 | 0.00 | 59 | 1013.6 |
| 20260503024028 | 8 | 32 | 9.7 | 20.9 | 0.00 | 0.00 | 0.00 | 59 | 1013.8 |
| 20260503023542 | 8 | 333 | 6.4 | 17.7 | 0.00 | 0.00 | 0.00 | 59 | 1013.9 |
| 20260503023103 | 8 | 355 | 8.0 | 17.7 | 0.00 | 0.00 | 0.00 | 59 | 1013.9 |
| 20260503022541 | 8 | 346 | 4.8 | 16.1 | 0.00 | 0.00 | 0.00 | 59 | 1014.0 |
| 20260503022036 | 8 | 355 | 4.8 | 14.5 | 0.00 | 0.00 | 0.00 | 59 | 1014.0 |